CW6888 Weather Reports


Display with metric or nautical units.
time (UTC)temp
F
wind
direction
speed
MPH
gust
MPH
rain 1hr
in
rain 24hr
in
rain mn
in
humidity
%
barometer
mb
20260831023832 74 207 0.0 0.0 0.00 0.11 0.11 91 1020.8
20260831022823 74 207 0.0 0.0 0.00 0.11 0.11 90 1020.7
20260831021822 74 207 0.0 0.0 0.00 0.11 0.11 90 1020.7
20260831020824 75 207 0.0 0.0 0.00 0.11 0.11 90 1020.5
20260831015831 75 207 0.0 0.0 0.00 0.11 0.11 90 1020.4
20260831014826 75 207 0.0 0.0 0.00 0.11 0.11 89 1020.5
20260831013823 75 207 0.0 0.0 0.00 0.11 0.11 89 1020.5
20260831012815 75 207 0.0 0.0 0.00 0.11 0.11 89 1020.6
20260831011832 75 207 0.0 0.0 0.00 0.11 0.11 89 1020.6
20260831010832 75 207 0.0 0.0 0.00 0.11 0.11 88 1020.6
20260831005821 76 207 0.0 0.0 0.00 0.11 0.11 88 1020.5
20260831004819 76 207 0.0 0.0 0.00 0.11 0.11 88 1020.3
20260831003816 76 207 0.0 0.0 0.00 0.11 0.11 87 1020.2
20260831002814 76 207 0.0 0.0 0.00 0.11 0.11 87 1020.0
20260831001833 76 207 0.0 0.0 0.00 0.11 0.11 87 1019.9
20260831000824 77 207 0.0 0.0 0.00 0.11 0.11 86 1019.7
20260830235816 77 207 0.0 0.0 0.00 0.11 0.11 85 1019.6
20260830234814 78 207 0.0 1.0 0.00 0.11 0.11 85 1019.5
20260830233829 78 207 0.0 0.0 0.00 0.11 0.11 84 1019.6
20260830232828 79 207 0.0 0.0 0.00 0.11 0.11 83 1019.8
20260830231825 79 207 0.0 1.0 0.00 0.11 0.11 83 1019.9
20260830230815 80 207 0.0 0.0 0.00 0.11 0.11 83 1020.1
20260830225838 80 207 0.0 0.0 0.00 0.11 0.11 83 1020.0
20260830224833 81 207 0.0 0.0 0.00 0.11 0.11 82 1020.0
20260830223851 81 207 0.0 0.0 0.00 0.11 0.11 82 1019.8
20260830222819 81 207 0.0 1.0 0.00 0.11 0.11 81 1019.8
20260830221816 82 207 0.0 1.0 0.00 0.11 0.11 81 1019.8
20260830220814 82 207 0.0 0.0 0.00 0.11 0.11 82 1019.7
20260830215845 81 207 0.0 0.0 0.00 0.11 0.11 83 1019.6
20260830214820 81 207 0.0 0.0 0.00 0.11 0.11 82 1019.6
20260830213819 82 207 0.0 0.0 0.00 0.11 0.11 80 1019.8
20260830212814 82 207 0.0 0.0 0.00 0.11 0.11 80 1019.7
20260830211834 83 207 0.0 3.0 0.00 0.11 0.11 79 1019.8
20260830210823 83 198 1.0 3.0 0.00 0.11 0.11 78 1019.9
20260830205843 83 227 0.0 3.0 0.00 0.11 0.11 79 1019.9
20260830204832 83 227 2.0 4.0 0.00 0.11 0.11 79 1020.1
20260830203819 83 186 0.0 2.0 0.00 0.11 0.11 80 1019.8
20260830202814 83 184 0.0 4.0 0.00 0.11 0.11 80 1019.9
20260830201903 83 131 1.0 3.0 0.00 0.11 0.11 79 1019.9
20260830200827 82 119 0.0 2.0 0.00 0.11 0.11 81 1019.7
20260830195816 82 217 0.0 1.0 0.00 0.11 0.11 80 1020.0
20260830194814 82 217 1.0 5.0 0.00 0.11 0.11 81 1020.1
20260830193828 82 132 1.0 4.0 0.00 0.11 0.11 83 1020.3
20260830192824 81 176 1.0 5.0 0.00 0.11 0.11 84 1020.6
20260830191841 80 222 0.0 0.0 0.00 0.11 0.11 86 1020.7
20260830190852 79 180 0.0 1.0 0.00 0.11 0.11 88 1020.9
20260830185822 78 176 0.0 4.0 0.00 0.11 0.11 87 1021.1
20260830184818 77 192 0.0 5.0 0.00 0.11 0.11 89 1021.3
20260830183830 77 177 1.0 5.0 0.01 0.11 0.11 90 1021.4
20260830182821 76 171 0.0 3.0 0.10 0.11 0.11 91 1021.5
20260830181817 75 153 1.0 5.0 0.11 0.11 0.11 90 1021.7
20260830180816 75 90 2.0 5.0 0.11 0.11 0.11 90 1021.8
20260830175827 75 184 0.0 0.0 0.11 0.11 0.11 90 1021.7
20260830174838 75 150 0.0 3.0 0.11 0.11 0.11 90 1021.9
20260830173816 76 126 1.0 4.0 0.10 0.10 0.10 88 1022.0
20260830172814 77 123 1.0 3.0 0.01 0.01 0.01 86 1022.1
20260830171832 77 177 0.0 3.0 0.00 0.00 0.00 84 1022.0
20260830170820 78 135 0.0 2.0 0.00 0.00 0.00 84 1022.1
20260830165841 78 184 0.0 4.0 0.00 0.00 0.00 84 1022.1
20260830164829 79 184 3.0 5.0 0.00 0.00 0.00 83 1022.2
20260830163825 79 160 3.0 6.0 0.00 0.00 0.00 84 1022.2
20260830162819 78 217 1.0 5.0 0.00 0.00 0.00 85 1022.2
20260830161822 77 178 0.0 4.0 0.00 0.00 0.00 85 1022.4
20260830160836 77 207 3.0 7.0 0.00 0.00 0.00 85 1022.4
20260830155825 77 155 0.0 6.0 0.00 0.00 0.00 85 1022.6
20260830154836 76 213 1.0 8.0 0.00 0.00 0.00 85 1022.7
20260830153832 76 246 1.0 7.0 0.00 0.00 0.00 86 1022.7
20260830152816 75 243 1.0 5.0 0.00 0.00 0.00 86 1022.7
20260830151830 75 138 1.0 5.0 0.00 0.00 0.00 87 1022.7
20260830150826 75 211 4.0 8.0 0.00 0.00 0.00 87 1022.7
20260830145815 74 206 2.0 6.0 0.00 0.00 0.00 89 1022.7
20260830144826 74 200 2.0 5.0 0.00 0.00 0.00 89 1022.7
20260830143821 73 198 0.0 5.0 0.00 0.00 0.00 89 1022.5
20260830142834 73 193 2.0 4.0 0.00 0.00 0.00 89 1022.5
20260830141831 73 186 0.0 3.0 0.00 0.00 0.00 90 1022.6
20260830140816 72 186 1.0 6.0 0.00 0.00 0.00 90 1022.7
20260830135822 72 188 0.0 3.0 0.00 0.00 0.00 91 1023.0
20260830134818 71 190 2.0 4.0 0.00 0.00 0.00 91 1023.0
20260830133814 71 190 2.0 7.0 0.00 0.00 0.00 91 1023.0
20260830132832 71 172 2.0 7.0 0.00 0.00 0.00 91 1023.1
20260830131827 70 195 1.0 6.0 0.00 0.00 0.00 92 1023.1
20260830130841 70 186 0.0 0.0 0.00 0.00 0.00 92 1023.2
20260830125828 69 186 0.0 0.0 0.00 0.00 0.00 93 1023.3
20260830124842 69 185 0.0 4.0 0.00 0.00 0.00 93 1023.5
20260830123837 69 204 0.0 0.0 0.00 0.00 0.00 92 1023.5
20260830122821 69 209 0.0 3.0 0.00 0.00 0.00 93 1023.6
20260830121814 68 165 0.0 4.0 0.00 0.00 0.00 93 1023.5
20260830120846 67 165 0.0 0.0 0.00 0.00 0.00 93 1023.5
20260830115839 67 165 0.0 0.0 0.00 0.00 0.00 92 1023.5
20260830114821 66 165 0.0 0.0 0.00 0.00 0.00 92 1023.5
20260830113817 65 165 0.0 0.0 0.00 0.00 0.00 91 1023.5
20260830112832 65 165 0.0 0.0 0.00 0.00 0.00 91 1023.5
20260830111826 66 165 0.0 0.0 0.00 0.00 0.00 91 1023.6
20260830110839 66 165 0.0 0.0 0.00 0.00 0.00 92 1023.5
20260830105850 65 165 0.0 0.0 0.00 0.00 0.00 93 1023.5
20260830104840 63 165 0.0 0.0 0.00 0.00 0.00 91 1023.5
20260830103832 64 165 0.0 0.0 0.00 0.00 0.00 90 1023.5
20260830102844 65 165 0.0 0.0 0.00 0.00 0.00 92 1023.4
20260830101824 64 165 0.0 0.0 0.00 0.00 0.00 91 1023.4
20260830100814 63 165 0.0 0.0 0.00 0.00 0.00 91 1023.4
20260830095820 61 165 0.0 0.0 0.00 0.00 0.00 90 1023.5
20260830094814 61 165 0.0 0.0 0.00 0.00 0.00 89 1023.5
20260830093827 61 165 0.0 0.0 0.00 0.00 0.00 89 1023.6
20260830092820 62 165 0.0 0.0 0.00 0.00 0.00 88 1023.6
20260830091854 62 165 0.0 0.0 0.00 0.00 0.00 87 1023.7
20260830090826 63 165 0.0 0.0 0.00 0.00 0.00 87 1023.5
20260830085832 63 165 0.0 0.0 0.00 0.00 0.00 88 1023.5
20260830084823 62 165 0.0 0.0 0.00 0.00 0.00 88 1023.6
20260830083815 62 165 0.0 0.0 0.00 0.00 0.00 89 1023.5
20260830082827 61 165 0.0 0.0 0.00 0.00 0.00 89 1023.6
20260830081819 61 165 0.0 0.0 0.00 0.00 0.00 88 1023.7
20260830080833 61 165 0.0 0.0 0.00 0.00 0.00 88 1023.8
20260830075837 61 165 0.0 0.0 0.00 0.00 0.00 88 1023.9
20260830074847 61 165 0.0 0.0 0.00 0.00 0.00 87 1023.9
20260830073817 61 165 0.0 0.0 0.00 0.00 0.00 87 1024.1
20260830072830 61 165 0.0 0.0 0.00 0.00 0.00 86 1024.2
20260830071822 62 165 0.0 0.0 0.00 0.00 0.00 86 1024.1
20260830070813 62 165 0.0 0.0 0.00 0.00 0.00 86 1024.1
20260830065820 62 165 0.0 2.0 0.00 0.00 0.00 86 1024.1
20260830064831 61 165 0.0 1.0 0.00 0.00 0.00 87 1024.0
20260830063823 61 165 0.0 0.0 0.00 0.00 0.00 87 1024.2
20260830062836 61 165 0.0 0.0 0.00 0.00 0.00 88 1024.4
20260830061828 61 165 0.0 0.0 0.00 0.00 0.00 87 1024.4
20260830060820 61 165 0.0 0.0 0.00 0.00 0.00 87 1024.4
20260830055846 61 165 0.0 0.0 0.00 0.00 0.00 87 1024.4
20260830054818 61 165 0.0 0.0 0.00 0.00 0.00 86 1024.5
20260830053832 61 165 0.0 0.0 0.00 0.00 0.00 85 1024.4
20260830052824 61 165 0.0 0.0 0.00 0.00 0.00 85 1024.4
20260830051837 61 165 0.0 0.0 0.00 0.00 0.00 86 1024.5
20260830050822 61 165 0.0 0.0 0.00 0.00 0.00 88 1024.4
20260830045836 61 165 0.0 0.0 0.00 0.00 0.00 88 1024.4
20260830044848 61 165 0.0 0.0 0.00 0.00 0.00 88 1024.4
20260830043819 61 165 0.0 0.0 0.00 0.00 0.00 88 1024.2
20260830042828 61 165 0.0 0.0 0.00 0.00 0.00 88 1024.2
20260830041839 61 165 0.0 0.0 0.00 0.00 0.00 87 1024.1
20260830040823 62 165 0.0 0.0 0.00 0.00 0.00 87 1024.0
20260830035836 62 165 0.0 0.0 0.00 0.00 0.00 87 1024.0
20260830034821 62 165 0.0 0.0 0.00 0.00 0.00 87 1023.9
20260830033835 62 165 0.0 0.0 0.00 0.00 0.00 87 1023.9
20260830032840 62 165 0.0 0.0 0.00 0.00 0.00 87 1024.0
20260830031834 62 165 0.0 0.0 0.00 0.00 0.00 86 1024.2
20260830030831 62 165 0.0 0.0 0.00 0.00 0.00 85 1024.3
20260830025818 62 165 0.0 0.0 0.00 0.00 0.00 85 1024.3
20260830024831 63 165 0.0 0.0 0.00 0.00 0.00 85 1024.2